Location: Trondheim
(63.4170°N, 10.4170°E)
Time: 03:22:51
(UTC+01:00)

Iridium 82 - Visible Passes

Search period start: 11 February 2016 00:00
Search period end: 21 February 2016 00:00
Orbit: 776 x 779 km, 86.4° (Epoch: 10 February)

Date Brightness Start Highest point End Pass type
(mag) Time Alt. Az. Time Alt. Az. Time Alt. Az.
11 Feb 7.3 05:12:23 10° SE 05:17:00 33° ENE 05:21:38 10° NNE visible
11 Feb 5.5 06:52:15 10° SSW 06:57:27 68° WNW 07:02:42 10° N visible
11 Feb 7.5 18:50:39 10° NNW 18:55:15 32° WNW 18:59:49 10° SW visible
12 Feb 7.9 04:39:41 10° ESE 04:43:45 23° ENE 04:47:49 10° NNE visible
12 Feb 5.6 06:18:38 10° S 06:23:52 84° E 06:29:08 10° N visible
12 Feb 6.8 18:16:56 10° NNW 18:21:55 45° W 18:26:52 10° SSW visible
12 Feb 8.6 19:59:02 10° NNW 20:01:28 13° WNW 20:03:52 10° W visible
13 Feb 8.4 04:07:21 10° ESE 04:10:36 17° ENE 04:13:50 10° NNE visible
13 Feb 6.2 05:45:15 10° SSE 05:50:22 59° E 05:55:31 10° N visible
13 Feb 6.0 07:26:31 10° SW 07:31:24 39° WNW 07:36:19 10° N visible
13 Feb 6.1 17:43:16 10° N 17:48:29 66° W 17:53:39 10° S visible
13 Feb 8.4 19:24:49 10° NNW 19:28:22 19° WNW 19:31:54 10° WSW visible
14 Feb 8.7 03:35:39 10° E 03:37:32 12° ENE 03:39:26 10° NE visible
14 Feb 6.9 05:12:07 10° SSE 05:16:59 41° E 05:21:51 10° NNE visible
14 Feb 5.6 06:52:31 10° SSW 06:57:39 55° WNW 07:02:49 10° N visible
14 Feb 7.9 18:50:55 10° NNW 18:55:11 26° WNW 18:59:27 10° SW visible
15 Feb 7.5 04:39:15 10° SE 04:43:40 29° ENE 04:48:07 10° NNE visible
15 Feb 5.5 06:18:46 10° SSW 06:24:00 79° W 06:29:16 10° N visible
15 Feb 7.3 18:17:08 10° NNW 18:21:55 37° W 18:26:40 10° SW visible
15 Feb 8.8 20:00:03 10° NW 20:01:15 11° WNW 20:02:27 10° WNW visible
16 Feb 8.1 04:06:41 10° ESE 04:10:28 21° ENE 04:14:15 10° NNE visible
16 Feb 5.8 05:45:15 10° S 05:50:27 73° E 05:55:41 10° N visible
16 Feb 6.5 17:43:27 10° NNW 17:48:33 53° W 17:53:36 10° SSW visible
16 Feb 8.5 19:25:17 10° NNW 19:28:13 15° WNW 19:31:09 10° W visible
17 Feb 8.5 03:34:33 10° E 03:37:21 15° ENE 03:40:10 10° NNE visible
17 Feb 6.4 05:11:58 10° SSE 05:16:59 51° E 05:22:03 10° NNE visible
17 Feb 5.8 06:52:53 10° SW 06:57:52 44° WNW 07:02:54 10° N visible
17 Feb 8.2 18:51:13 10° NNW 18:55:05 21° WNW 18:58:57 10° WSW visible
18 Feb 8.8 03:03:33 10° ENE 03:04:19 10° ENE 03:05:07 10° NE visible
18 Feb 7.1 04:38:56 10° SE 04:43:38 35° E 04:48:21 10° NNE visible
18 Feb 5.5 06:18:59 10° SSW 06:24:10 63° WNW 06:29:24 10° N visible
18 Feb 7.7 18:17:23 10° NNW 18:21:53 30° WNW 18:26:21 10° SW visible
19 Feb 7.7 04:06:11 10° SE 04:10:22 25° ENE 04:14:35 10° NNE visible
19 Feb 5.5 05:45:19 10° S 05:50:33 90° W 05:55:50 10° N visible
19 Feb 8.6 19:25:57 10° NW 19:28:02 12° WNW 19:30:08 10° W visible
20 Feb 8.2 03:33:45 10° ESE 03:37:12 18° ENE 03:40:39 10° NNE visible
20 Feb 6.0 05:11:53 10° S 05:17:02 63° E 05:22:14 10° N visible
20 Feb 6.1 06:53:20 10° SW 06:58:09 36° WNW 07:03:00 10° N visible
20 Feb 8.4 18:51:37 10° NNW 18:54:59 17° WNW 18:58:19 10° WSW visible
